Hourly Data Report for November 05, 2019

All times are specified in Local Standard Time (LST). Add 1 hour to adjust for Daylight Saving Time where and when it is observed.

SEPT-ILES
QUEBEC
Current Station Operator: ECCC - MSC

50°13'00.000" N
66°15'00.000" W
52.60 m
7047914
71279
XZV

Download Data

Hourly Data (November 2019)
Hourly Data Report for November 5, 2019
TIME Temp Definition
°C
Dew Point Definition
°C
Rel Hum Definition
%
Wind Dir Definition
10's deg

Wind Spd Definition
km/h
Visibility Definition
km
Stn Press Definition
kPa
Hmdx Definition


Wind Chill Definition


Weather Definition


00:00 -3.9 -6.2 84 5 4   101.80   -6 LegendNANA
01:00 -3.2 -5.2 86 5 7   101.78   -6 LegendNANA
02:00 -3.3 -5.0 88 6 5   101.76   -5 LegendNANA
03:00 -2.3 -4.5 85 6 6   101.70   -5 LegendNANA
04:00 -1.8 -3.9 85 8 5   101.65   -4 LegendNANA
05:00 -0.1 -2.3 85 6 5   101.56   -2 LegendNANA
06:00 3.1 1.0 86 20 7   101.51     LegendNANA
07:00 2.9 1.3 89 15 10   101.49     LegendNANA
08:00 3.5 2.1 90 14 11   101.48     LegendNANA
09:00 4.0 2.4 89 20 8   101.43     LegendNANA
10:00 4.0 2.5 90 22 4   101.40     LegendNANA
11:00 4.4 2.7 89 22 4   101.35     LegendNANA
12:00 4.4 3.2 92 12 5   101.28     LegendNANA
13:00 4.7 3.2 89 18 2   101.27     LegendNANA
14:00 4.2 3.3 94 9 6   101.22     LegendNANA
15:00 4.3 3.3 93 11 8   101.17     LegendNANA
16:00 4.6 3.9 95 11 6   101.13     LegendNANA
17:00 4.2 3.8 97 9 7   101.09     LegendNANA
18:00 4.6 4.0 96 10 6   100.99     LegendNANA
19:00 4.8 4.1 96 9 7   100.89     LegendNANA
20:00 4.9 4.5 97 10 8   100.79     LegendNANA
21:00 5.2 4.8 97 11 7   100.68     LegendNANA
22:00 5.8 5.5 98 15 9   100.55     LegendNANA
23:00 5.9 5.6 98 14 5   100.44     LegendNANA

Notes on Data Quality.

Legend

  • E = Estimated
  • M = Missing
  • NA = Not Available
Date modified: